| time (UTC) | temp C | wind direction | speed KPH | gust KPH | rain 1hr cm | rain 24hr cm | rain mn cm | humidity % | barometer mb |
| 20260506182836 | 7 | 232 | 1.6 | 1.6 | 0.13 | 2.11 | 2.11 | 99 | 1006.1 |
| 20260506182333 | 7 | 352 | 4.8 | 4.8 | 0.13 | 2.11 | 2.11 | 99 | 1006.3 |
| 20260506181831 | 8 | 221 | 0.0 | 1.6 | 0.00 | 2.08 | 2.08 | 99 | 1006.1 |
| 20260506181329 | 7 | 178 | 0.0 | 0.0 | 0.00 | 2.08 | 2.08 | 99 | 1006.2 |
| 20260506180825 | 7 | 35 | 1.6 | 1.6 | 0.18 | 2.08 | 2.08 | 99 | 1006.3 |
| 20260506180321 | 7 | 6 | 6.4 | 9.7 | 0.30 | 2.08 | 2.08 | 99 | 1006.5 |
| 20260506175818 | 7 | 331 | 3.2 | 3.2 | 0.30 | 2.06 | 2.06 | 99 | 1006.7 |
| 20260506175315 | 7 | 244 | 1.6 | 1.6 | 0.66 | 2.03 | 2.03 | 99 | 1006.7 |
| 20260506174812 | 7 | 192 | 1.6 | 1.6 | 1.07 | 2.01 | 2.01 | 99 | 1006.8 |
| 20260506174309 | 7 | 214 | 1.6 | 1.6 | 0.89 | 1.93 | 1.93 | 99 | 1007.0 |
| 20260506173807 | 7 | 1 | 1.6 | 3.2 | 0.79 | 1.85 | 1.85 | 99 | 1006.7 |
| 20260506173303 | 7 | 238 | 1.6 | 3.2 | 0.61 | 1.78 | 1.78 | 99 | 1006.6 |
| 20260506172800 | 7 | 70 | 3.2 | 3.2 | 0.48 | 1.73 | 1.73 | 99 | 1006.6 |
| 20260506172257 | 7 | 1 | 3.2 | 3.2 | 0.30 | 1.68 | 1.68 | 99 | 1006.6 |
| 20260506171755 | 7 | 5 | 4.8 | 8.0 | 0.30 | 1.65 | 1.65 | 99 | 1006.6 |
| 20260506171251 | 7 | 349 | 3.2 | 3.2 | 0.18 | 1.63 | 1.63 | 99 | 1006.6 |
| 20260506170749 | 7 | 8 | 4.8 | 4.8 | 0.13 | 1.60 | 1.60 | 99 | 1006.7 |
| 20260506170245 | 7 | 6 | 3.2 | 3.2 | 0.13 | 1.60 | 1.60 | 99 | 1006.6 |
| 20260506165744 | 7 | 298 | 3.2 | 3.2 | 0.18 | 1.57 | 1.57 | 99 | 1006.4 |
| 20260506165241 | 7 | 181 | 0.0 | 0.0 | 0.48 | 1.57 | 1.57 | 99 | 1006.6 |
| 20260506164738 | 8 | 256 | 4.8 | 4.8 | 0.61 | 1.55 | 1.55 | 99 | 1006.5 |
| 20260506164235 | 8 | 237 | 3.2 | 3.2 | 0.43 | 1.50 | 1.50 | 99 | 1006.6 |
| 20260506163732 | 8 | 320 | 6.4 | 8.0 | 0.30 | 1.45 | 1.45 | 99 | 1006.6 |
| 20260506163226 | 8 | 306 | 4.8 | 8.0 | 0.36 | 1.42 | 1.42 | 99 | 1006.6 |
| 20260506162722 | 8 | 335 | 1.6 | 4.8 | 0.30 | 1.40 | 1.40 | 99 | 1006.4 |
| 20260506162220 | 8 | 3 | 4.8 | 4.8 | 0.30 | 1.37 | 1.37 | 99 | 1006.6 |
| 20260506161718 | 8 | 16 | 0.0 | 1.6 | 0.48 | 1.35 | 1.35 | 99 | 1006.8 |
| 20260506161215 | 8 | 11 | 4.8 | 4.8 | 0.43 | 1.32 | 1.32 | 99 | 1006.8 |
| 20260506160712 | 8 | 28 | 3.2 | 3.2 | 0.30 | 1.27 | 1.27 | 99 | 1006.7 |
| 20260506160209 | 9 | 188 | 0.0 | 1.6 | 0.18 | 1.24 | 1.24 | 99 | 1006.4 |
| 20260506155707 | 9 | 321 | 3.2 | 3.2 | 0.13 | 1.22 | 1.22 | 99 | 1006.6 |
| 20260506155204 | 9 | 74 | 3.2 | 3.2 | 0.30 | 1.22 | 1.22 | 99 | 1006.6 |
| 20260506153311 | 9 | 359 | 0.0 | 1.6 | 0.30 | 1.07 | 1.07 | 99 | 1006.7 |
| 20260506152808 | 9 | 213 | 1.6 | 1.6 | 0.30 | 1.04 | 1.04 | 99 | 1006.7 |
| 20260506152306 | 9 | 202 | 1.6 | 3.2 | 0.18 | 1.02 | 1.02 | 99 | 1006.7 |
| 20260506151805 | 9 | 212 | 1.6 | 1.6 | 0.13 | 0.99 | 0.99 | 99 | 1006.8 |
| 20260506151301 | 9 | 183 | 1.6 | 1.6 | 0.30 | 0.99 | 0.99 | 99 | 1006.9 |
| 20260506150757 | 9 | 71 | 3.2 | 3.2 | 0.18 | 0.97 | 0.97 | 99 | 1007.0 |
| 20260506150303 | 9 | 239 | 1.6 | 3.2 | 0.13 | 0.94 | 0.94 | 99 | 1007.1 |
| 20260506145751 | 9 | 253 | 3.2 | 3.2 | 0.30 | 0.94 | 0.94 | 99 | 1007.1 |
| 20260506145248 | 9 | 347 | 3.2 | 3.2 | 0.30 | 0.91 | 0.91 | 99 | 1007.4 |
| 20260506144745 | 9 | 184 | 0.0 | 1.6 | 0.13 | 0.89 | 0.89 | 99 | 1007.3 |
| 20260506144242 | 9 | 196 | 0.0 | 1.6 | 0.18 | 0.86 | 0.86 | 99 | 1007.3 |
| 20260506143740 | 9 | 225 | 1.6 | 1.6 | 0.13 | 0.84 | 0.84 | 99 | 1007.3 |
| 20260506143237 | 10 | 222 | 1.6 | 3.2 | 0.13 | 0.84 | 0.84 | 99 | 1007.3 |
| 20260506142736 | 9 | 185 | 1.6 | 1.6 | 0.13 | 0.84 | 0.84 | 99 | 1007.3 |
| 20260506142233 | 10 | 238 | 1.6 | 3.2 | 0.18 | 0.81 | 0.81 | 99 | 1007.1 |
| 20260506141731 | 10 | 202 | 1.6 | 1.6 | 0.18 | 0.81 | 0.81 | 99 | 1007.4 |
| 20260506141229 | 9 | 193 | 0.0 | 1.6 | 0.13 | 0.79 | 0.79 | 99 | 1007.3 |
| 20260506140726 | 9 | 196 | 1.6 | 1.6 | 0.30 | 0.79 | 0.79 | 99 | 1007.3 |
| 20260506140223 | 9 | 339 | 3.2 | 3.2 | 0.18 | 0.76 | 0.76 | 99 | 1007.5 |
| 20260506135720 | 9 | 249 | 1.6 | 1.6 | 0.30 | 0.74 | 0.74 | 99 | 1007.4 |
| 20260506135216 | 9 | 180 | 0.0 | 1.6 | 0.43 | 0.71 | 0.71 | 99 | 1007.5 |
| 20260506134713 | 9 | 179 | 0.0 | 0.0 | 0.48 | 0.69 | 0.69 | 99 | 1007.7 |
| 20260506134209 | 9 | 195 | 0.0 | 1.6 | 0.30 | 0.64 | 0.64 | 99 | 1007.5 |
| 20260506133707 | 9 | 180 | 0.0 | 1.6 | 0.13 | 0.61 | 0.61 | 99 | 1007.5 |
| 20260506133203 | 9 | 227 | 1.6 | 3.2 | 0.18 | 0.58 | 0.58 | 99 | 1007.5 |
| 20260506132700 | 10 | 264 | 1.6 | 3.2 | 0.30 | 0.58 | 0.58 | 99 | 1007.7 |
| 20260506132157 | 10 | 212 | 1.6 | 1.6 | 0.13 | 0.56 | 0.56 | 99 | 1007.6 |
| 20260506131655 | 10 | 351 | 3.2 | 3.2 | 0.30 | 0.56 | 0.56 | 99 | 1007.7 |
| 20260506131151 | 10 | 216 | 0.0 | 1.6 | 0.30 | 0.53 | 0.53 | 99 | 1007.5 |
| 20260506130648 | 10 | 182 | 0.0 | 0.0 | 0.30 | 0.51 | 0.51 | 99 | 1008.0 |
| 20260506130145 | 10 | 178 | 1.6 | 1.6 | 0.48 | 0.48 | 0.48 | 99 | 1007.9 |
| 20260506125643 | 10 | 192 | 0.0 | 0.0 | 0.48 | 0.46 | 0.46 | 99 | 1008.1 |
| 20260506125141 | 10 | 185 | 0.0 | 0.0 | 0.30 | 0.41 | 0.41 | 99 | 1008.2 |
| 20260506124639 | 10 | 277 | 3.2 | 3.2 | 0.30 | 0.38 | 0.38 | 99 | 1008.1 |
| 20260506124136 | 10 | 168 | 0.0 | 0.0 | 0.18 | 0.36 | 0.36 | 99 | 1008.4 |
| 20260506123633 | 9 | 243 | 3.2 | 3.2 | 0.13 | 0.33 | 0.33 | 99 | 1008.1 |
| 20260506123132 | 10 | 305 | 1.6 | 1.6 | 0.13 | 0.33 | 0.33 | 99 | 1008.1 |
| 20260506122628 | 10 | 181 | 0.0 | 1.6 | 0.18 | 0.30 | 0.30 | 99 | 1008.2 |
| 20260506122126 | 10 | 245 | 1.6 | 3.2 | 0.18 | 0.30 | 0.30 | 99 | 1008.1 |
| 20260506121624 | 10 | 350 | 4.8 | 4.8 | 0.00 | 0.28 | 0.28 | 99 | 1008.2 |
| 20260506121120 | 10 | 236 | 3.2 | 3.2 | 0.13 | 0.28 | 0.28 | 99 | 1008.3 |
| 20260506120618 | 10 | 269 | 3.2 | 3.2 | 0.13 | 0.28 | 0.28 | 99 | 1008.2 |
| 20260506120115 | 10 | 195 | 0.0 | 0.0 | 0.00 | 0.25 | 0.25 | 99 | 1008.5 |
| 20260506115614 | 10 | 186 | 0.0 | 0.0 | 0.00 | 0.25 | 0.25 | 99 | 1008.5 |
| 20260506115111 | 10 | 197 | 0.0 | 0.0 | 0.00 | 0.25 | 0.25 | 99 | 1008.6 |
| 20260506114608 | 10 | 176 | 0.0 | 0.0 | 0.00 | 0.25 | 0.25 | 99 | 1008.1 |
| 20260506114106 | 10 | 187 | 0.0 | 0.0 | 0.18 | 0.25 | 0.25 | 99 | 1008.2 |
| 20260506113604 | 10 | 192 | 0.0 | 1.6 | 0.18 | 0.25 | 0.25 | 99 | 1008.2 |
| 20260506113101 | 10 | 186 | 0.0 | 0.0 | 0.00 | 0.23 | 0.23 | 99 | 1008.1 |
| 20260506112557 | 10 | 187 | 0.0 | 0.0 | 0.00 | 0.23 | 0.23 | 99 | 1008.2 |
| 20260506112055 | 10 | 186 | 0.0 | 0.0 | 0.00 | 0.23 | 0.23 | 99 | 1008.2 |
| 20260506111553 | 10 | 185 | 0.0 | 0.0 | 0.00 | 0.23 | 0.23 | 99 | 1007.9 |
| 20260506111050 | 10 | 193 | 0.0 | 0.0 | 0.00 | 0.23 | 0.23 | 99 | 1008.0 |
| 20260506110548 | 10 | 189 | 0.0 | 0.0 | 0.00 | 0.23 | 0.23 | 99 | 1007.9 |
| 20260506110045 | 10 | 181 | 0.0 | 0.0 | 0.00 | 0.23 | 0.23 | 99 | 1007.9 |
| 20260506105541 | 10 | 130 | 1.6 | 3.2 | 0.13 | 0.23 | 0.23 | 99 | 1008.0 |
| 20260506105038 | 10 | 188 | 0.0 | 0.0 | 0.13 | 0.23 | 0.23 | 99 | 1008.0 |
| 20260506104536 | 10 | 180 | 0.0 | 0.0 | 0.00 | 0.20 | 0.20 | 99 | 1007.9 |
| 20260506104034 | 10 | 182 | 0.0 | 0.0 | 0.00 | 0.20 | 0.20 | 99 | 1007.9 |
| 20260506103531 | 10 | 209 | 1.6 | 1.6 | 0.00 | 0.20 | 0.20 | 99 | 1008.0 |
| 20260506103027 | 10 | 250 | 1.6 | 1.6 | 0.00 | 0.20 | 0.20 | 99 | 1007.9 |
| 20260506102526 | 11 | 179 | 0.0 | 1.6 | 0.00 | 0.20 | 0.20 | 99 | 1008.0 |
| 20260506102023 | 11 | 211 | 1.6 | 3.2 | 0.00 | 0.20 | 0.20 | 99 | 1007.8 |
| 20260506101519 | 10 | 204 | 1.6 | 1.6 | 0.00 | 0.20 | 0.20 | 99 | 1008.1 |
| 20260506101016 | 11 | 189 | 1.6 | 1.6 | 0.00 | 0.20 | 0.20 | 99 | 1008.2 |
| 20260506100515 | 11 | 175 | 0.0 | 1.6 | 0.00 | 0.20 | 0.20 | 99 | 1008.2 |
| 20260506100013 | 11 | 184 | 0.0 | 0.0 | 0.00 | 0.20 | 0.20 | 99 | 1007.9 |
| 20260506095511 | 11 | 192 | 0.0 | 0.0 | 0.00 | 0.20 | 0.20 | 99 | 1008.0 |
| 20260506095006 | 11 | 211 | 1.6 | 1.6 | 0.00 | 0.20 | 0.20 | 99 | 1007.8 |
| 20260506094505 | 11 | 232 | 0.0 | 1.6 | 0.00 | 0.20 | 0.20 | 99 | 1008.0 |
| 20260506094003 | 11 | 188 | 0.0 | 0.0 | 0.00 | 0.20 | 0.20 | 99 | 1008.0 |
| 20260506093501 | 11 | 183 | 0.0 | 0.0 | 0.00 | 0.20 | 0.20 | 99 | 1007.9 |
| 20260506092958 | 11 | 185 | 0.0 | 0.0 | 0.00 | 0.20 | 0.20 | 99 | 1008.2 |
| 20260506092456 | 11 | 185 | 0.0 | 0.0 | 0.00 | 0.20 | 0.20 | 99 | 1008.2 |
| 20260506091952 | 11 | 185 | 0.0 | 0.0 | 0.00 | 0.20 | 0.20 | 99 | 1008.3 |
| 20260506091450 | 11 | 186 | 0.0 | 0.0 | 0.00 | 0.20 | 0.20 | 99 | 1008.4 |
| 20260506090947 | 11 | 185 | 0.0 | 0.0 | 0.00 | 0.20 | 0.20 | 99 | 1008.2 |
| 20260506090445 | 11 | 194 | 0.0 | 0.0 | 0.00 | 0.20 | 0.20 | 99 | 1007.9 |
| 20260506085941 | 11 | 188 | 0.0 | 0.0 | 0.00 | 0.20 | 0.20 | 99 | 1007.8 |
| 20260506085438 | 11 | 187 | 0.0 | 0.0 | 0.00 | 0.20 | 0.20 | 99 | 1008.2 |
| 20260506084934 | 11 | 187 | 0.0 | 0.0 | 0.00 | 0.20 | 0.20 | 99 | 1008.1 |
| 20260506084432 | 11 | 185 | 0.0 | 0.0 | 0.00 | 0.20 | 0.20 | 99 | 1008.4 |
| 20260506083927 | 11 | 180 | 0.0 | 0.0 | 0.00 | 0.20 | 0.20 | 99 | 1008.2 |
| 20260506083425 | 11 | 180 | 0.0 | 0.0 | 0.00 | 0.20 | 0.20 | 99 | 1008.0 |
| 20260506082922 | 11 | 180 | 0.0 | 0.0 | 0.00 | 0.20 | 0.20 | 99 | 1008.3 |
| 20260506082419 | 11 | 180 | 0.0 | 0.0 | 0.00 | 0.20 | 0.20 | 99 | 1008.6 |
| 20260506081914 | 11 | 180 | 0.0 | 0.0 | 0.00 | 0.20 | 0.20 | 99 | 1008.5 |
| 20260506081414 | 11 | 198 | 0.0 | 0.0 | 0.00 | 0.20 | 0.20 | 99 | 1008.6 |
| 20260506080910 | 11 | 177 | 0.0 | 0.0 | 0.00 | 0.20 | 0.20 | 99 | 1008.7 |
| 20260506080407 | 11 | 166 | 3.2 | 3.2 | 0.00 | 0.20 | 0.20 | 99 | 1009.1 |
| 20260506073351 | 11 | 195 | 0.0 | 0.0 | 0.00 | 0.20 | 0.20 | 99 | 1007.9 |
| 20260506072847 | 11 | 195 | 0.0 | 0.0 | 0.00 | 0.20 | 0.20 | 99 | 1007.9 |
| 20260506072345 | 11 | 195 | 0.0 | 0.0 | 0.00 | 0.20 | 0.20 | 99 | 1008.0 |
| 20260506071843 | 11 | 195 | 0.0 | 0.0 | 0.00 | 0.20 | 0.20 | 99 | 1008.1 |
| 20260506071341 | 11 | 196 | 0.0 | 0.0 | 0.00 | 0.20 | 0.20 | 99 | 1008.1 |
| 20260506070837 | 11 | 196 | 0.0 | 0.0 | 0.00 | 0.20 | 0.20 | 99 | 1008.0 |
| 20260506070334 | 11 | 195 | 0.0 | 0.0 | 0.18 | 0.20 | 0.20 | 99 | 1007.9 |
| 20260506062312 | 11 | 182 | 0.0 | 0.0 | 0.00 | 0.13 | 0.13 | 99 | 1008.3 |
| 20260506061808 | 11 | 218 | 1.6 | 1.6 | 0.00 | 0.13 | 0.13 | 99 | 1008.2 |
| 20260506061304 | 11 | 180 | 0.0 | 0.0 | 0.00 | 0.13 | 0.13 | 99 | 1008.1 |
| 20260506060803 | 12 | 178 | 0.0 | 0.0 | 0.00 | 0.13 | 0.13 | 99 | 1008.3 |
| 20260506060301 | 12 | 181 | 0.0 | 0.0 | 0.00 | 0.13 | 0.13 | 99 | 1008.2 |
| 20260506051232 | 12 | 178 | 0.0 | 0.0 | 0.00 | 0.08 | 0.08 | 99 | 1008.9 |
| 20260506050730 | 12 | 178 | 0.0 | 0.0 | 0.00 | 0.08 | 0.08 | 99 | 1008.8 |
| 20260506050227 | 12 | 181 | 0.0 | 0.0 | 0.18 | 0.08 | 0.08 | 99 | 1008.5 |
| 20260506044718 | 12 | 182 | 0.0 | 0.0 | 0.13 | 0.05 | 0.05 | 99 | 1008.3 |
| 20260506044215 | 12 | 178 | 0.0 | 0.0 | 0.18 | 0.03 | 0.03 | 99 | 1008.4 |
| 20260506043712 | 12 | 178 | 0.0 | 0.0 | 0.00 | 0.00 | 0.00 | 99 | 1008.6 |
| 20260506043210 | 13 | 179 | 0.0 | 0.0 | 0.00 | 0.00 | 0.00 | 99 | 1008.3 |
| 20260506042709 | 13 | 176 | 0.0 | 0.0 | 0.00 | 0.00 | 0.00 | 99 | 1008.3 |
| 20260506042206 | 13 | 179 | 0.0 | 0.0 | 0.00 | 0.00 | 0.00 | 99 | 1008.6 |
| 20260506041705 | 12 | 180 | 0.0 | 0.0 | 0.00 | 0.00 | 0.00 | 99 | 1008.3 |
| 20260506041201 | 13 | 197 | 1.6 | 1.6 | 0.00 | 0.00 | 0.00 | 99 | 1008.1 |
| 20260506040659 | 13 | 179 | 0.0 | 0.0 | 0.30 | 0.00 | 0.00 | 99 | 1008.5 |
| 20260506040155 | 13 | 180 | 0.0 | 0.0 | 0.43 | 0.00 | 0.00 | 99 | 1008.6 |
| 20260506035652 | 13 | 12 | 3.2 | 3.2 | 0.30 | 0.30 | 0.30 | 99 | 1008.7 |
| 20260506035149 | 13 | 182 | 0.0 | 0.0 | 0.00 | 0.25 | 0.25 | 99 | 1008.3 |
| 20260506034646 | 13 | 222 | 1.6 | 1.6 | 0.00 | 0.25 | 0.25 | 99 | 1008.0 |
| 20260506034143 | 13 | 181 | 0.0 | 0.0 | 0.18 | 0.25 | 0.25 | 98 | 1007.9 |
| 20260506033640 | 13 | 180 | 0.0 | 0.0 | 0.18 | 0.25 | 0.25 | 98 | 1007.6 |
| 20260506033137 | 13 | 181 | 0.0 | 0.0 | 0.30 | 0.23 | 0.23 | 98 | 1007.0 |
| 20260506032634 | 13 | 180 | 0.0 | 0.0 | 0.43 | 0.23 | 0.23 | 97 | 1007.4 |
| 20260506032131 | 13 | 179 | 1.6 | 1.6 | 0.13 | 0.18 | 0.18 | 97 | 1007.5 |
| 20260506031628 | 13 | 176 | 0.0 | 0.0 | 0.18 | 0.15 | 0.15 | 96 | 1006.8 |
| 20260506031125 | 13 | 176 | 0.0 | 0.0 | 0.18 | 0.15 | 0.15 | 96 | 1006.9 |
| 20260506030624 | 13 | 176 | 0.0 | 0.0 | 0.00 | 0.13 | 0.13 | 96 | 1006.9 |
| 20260506030121 | 13 | 176 | 0.0 | 0.0 | 0.00 | 0.13 | 0.13 | 95 | 1007.0 |
| 20260506025617 | 13 | 176 | 0.0 | 0.0 | 0.00 | 0.13 | 0.13 | 94 | 1006.9 |
| 20260506025113 | 13 | 176 | 0.0 | 0.0 | 0.00 | 0.13 | 0.13 | 94 | 1007.0 |
| 20260506024611 | 13 | 176 | 0.0 | 0.0 | 0.00 | 0.13 | 0.13 | 93 | 1006.8 |
| 20260506024107 | 13 | 176 | 0.0 | 0.0 | 0.00 | 0.13 | 0.13 | 93 | 1006.9 |
| 20260506023603 | 14 | 176 | 0.0 | 0.0 | 0.00 | 0.13 | 0.13 | 91 | 1006.7 |
| 20260506023101 | 14 | 176 | 0.0 | 0.0 | 0.00 | 0.13 | 0.13 | 90 | 1006.8 |
| 20260506022558 | 14 | 176 | 0.0 | 0.0 | 0.00 | 0.13 | 0.13 | 90 | 1007.0 |
| 20260506022055 | 14 | 176 | 0.0 | 1.6 | 0.00 | 0.13 | 0.13 | 90 | 1007.1 |
| 20260506021553 | 14 | 176 | 0.0 | 1.6 | 0.00 | 0.13 | 0.13 | 90 | 1006.8 |
| 20260506021050 | 14 | 176 | 0.0 | 0.0 | 0.00 | 0.13 | 0.13 | 90 | 1006.9 |
| 20260506020547 | 14 | 177 | 0.0 | 0.0 | 0.00 | 0.13 | 0.13 | 90 | 1006.8 |
| 20260506020044 | 14 | 173 | 1.6 | 1.6 | 0.00 | 0.13 | 0.13 | 90 | 1007.0 |
| 20260506015542 | 14 | 180 | 0.0 | 0.0 | 0.00 | 0.13 | 0.13 | 89 | 1006.9 |
| 20260506015039 | 15 | 179 | 0.0 | 0.0 | 0.00 | 0.13 | 0.13 | 88 | 1006.7 |
| 20260506014536 | 15 | 176 | 1.6 | 1.6 | 0.00 | 0.13 | 0.13 | 88 | 1006.6 |
| 20260506014032 | 15 | 176 | 1.6 | 1.6 | 0.00 | 0.13 | 0.13 | 88 | 1006.2 |
| 20260506013531 | 14 | 177 | 0.0 | 0.0 | 0.00 | 0.13 | 0.13 | 89 | 1006.3 |
| 20260506013027 | 15 | 171 | 0.0 | 0.0 | 0.00 | 0.13 | 0.13 | 90 | 1006.2 |
| 20260506012523 | 15 | 171 | 0.0 | 0.0 | 0.00 | 0.13 | 0.13 | 90 | 1006.1 |
| 20260506012020 | 15 | 171 | 0.0 | 0.0 | 0.00 | 0.13 | 0.13 | 89 | 1006.1 |
| 20260506011517 | 15 | 171 | 0.0 | 0.0 | 0.00 | 0.13 | 0.13 | 89 | 1006.2 |
| 20260506011013 | 15 | 171 | 0.0 | 0.0 | 0.00 | 0.13 | 0.13 | 89 | 1006.2 |
| 20260506010508 | 15 | 171 | 0.0 | 0.0 | 0.00 | 0.13 | 0.13 | 88 | 1005.9 |
| 20260506010003 | 15 | 171 | 0.0 | 0.0 | 0.00 | 0.13 | 0.13 | 87 | 1006.0 |
| 20260506005501 | 15 | 171 | 0.0 | 0.0 | 0.00 | 0.13 | 0.13 | 87 | 1005.9 |
| 20260506004956 | 15 | 171 | 0.0 | 0.0 | 0.00 | 0.13 | 0.13 | 86 | 1005.9 |
| 20260506004454 | 15 | 171 | 0.0 | 0.0 | 0.00 | 0.13 | 0.13 | 86 | 1006.0 |
| 20260506003950 | 15 | 171 | 0.0 | 0.0 | 0.00 | 0.13 | 0.13 | 85 | 1005.9 |
| 20260506003447 | 16 | 171 | 0.0 | 0.0 | 0.00 | 0.13 | 0.13 | 85 | 1005.8 |
| 20260506002943 | 16 | 171 | 0.0 | 0.0 | 0.00 | 0.13 | 0.13 | 85 | 1005.8 |
| 20260506002439 | 16 | 171 | 0.0 | 0.0 | 0.00 | 0.13 | 0.13 | 83 | 1005.8 |
| 20260506001934 | 16 | 171 | 0.0 | 0.0 | 0.00 | 0.13 | 0.13 | 83 | 1005.8 |
| 20260506001432 | 16 | 171 | 0.0 | 0.0 | 0.00 | 0.13 | 0.13 | 82 | 1005.9 |
| 20260506000929 | 16 | 179 | 1.6 | 3.2 | 0.00 | 0.13 | 0.13 | 83 | 1005.9 |
| 20260506000426 | 16 | 177 | 0.0 | 0.0 | 0.00 | 0.13 | 0.13 | 83 | 1005.8 |
| 20260505235923 | 16 | 174 | 0.0 | 0.0 | 0.00 | 0.13 | 0.13 | 84 | 1005.7 |
| 20260505235421 | 16 | 174 | 0.0 | 0.0 | 0.00 | 0.13 | 0.13 | 82 | 1005.7 |
| 20260505234918 | 17 | 166 | 3.2 | 3.2 | 0.00 | 0.13 | 0.13 | 77 | 1005.8 |
| 20260505234416 | 17 | 178 | 0.0 | 0.0 | 0.00 | 0.13 | 0.13 | 74 | 1005.7 |
| 20260505233912 | 17 | 172 | 3.2 | 3.2 | 0.00 | 0.13 | 0.13 | 74 | 1005.9 |
| 20260505233410 | 17 | 167 | 3.2 | 3.2 | 0.00 | 0.13 | 0.13 | 74 | 1005.7 |
| 20260505232907 | 17 | 173 | 4.8 | 4.8 | 0.00 | 0.13 | 0.13 | 73 | 1005.6 |
| 20260505232405 | 18 | 171 | 1.6 | 1.6 | 0.00 | 0.13 | 0.13 | 71 | 1005.5 |
| 20260505231901 | 18 | 174 | 1.6 | 3.2 | 0.00 | 0.13 | 0.13 | 71 | 1005.3 |
| 20260505231359 | 18 | 166 | 1.6 | 3.2 | 0.00 | 0.13 | 0.13 | 70 | 1005.4 |
| 20260505230857 | 18 | 174 | 1.6 | 3.2 | 0.00 | 0.13 | 0.13 | 71 | 1005.2 |
| 20260505230354 | 17 | 158 | 3.2 | 3.2 | 0.00 | 0.13 | 0.13 | 73 | 1005.2 |
| 20260505225851 | 17 | 184 | 3.2 | 3.2 | 0.00 | 0.13 | 0.13 | 74 | 1005.2 |
| 20260505225348 | 18 | 176 | 1.6 | 1.6 | 0.00 | 0.13 | 0.13 | 75 | 1005.4 |
| 20260505224843 | 18 | 176 | 1.6 | 3.2 | 0.00 | 0.13 | 0.13 | 75 | 1005.5 |
| 20260505224341 | 18 | 179 | 0.0 | 0.0 | 0.00 | 0.13 | 0.13 | 75 | 1005.4 |
| 20260505223838 | 18 | 176 | 1.6 | 1.6 | 0.00 | 0.13 | 0.13 | 73 | 1005.3 |
| 20260505223335 | 18 | 175 | 0.0 | 0.0 | 0.00 | 0.13 | 0.13 | 73 | 1005.4 |
| 20260505222830 | 18 | 162 | 3.2 | 3.2 | 0.00 | 0.13 | 0.13 | 74 | 1004.9 |
| 20260505222327 | 18 | 175 | 0.0 | 1.6 | 0.00 | 0.13 | 0.13 | 76 | 1004.7 |
| 20260505221824 | 18 | 174 | 0.0 | 0.0 | 0.00 | 0.13 | 0.13 | 76 | 1004.8 |
| 20260505221321 | 18 | 184 | 1.6 | 1.6 | 0.00 | 0.13 | 0.13 | 72 | 1004.8 |
| 20260505220818 | 18 | 165 | 3.2 | 4.8 | 0.00 | 0.13 | 0.13 | 74 | 1005.2 |
| 20260505220315 | 19 | 206 | 3.2 | 4.8 | 0.00 | 0.13 | 0.13 | 70 | 1005.3 |
| 20260505215813 | 19 | 172 | 0.0 | 1.6 | 0.00 | 0.13 | 0.13 | 69 | 1005.2 |
| 20260505215310 | 19 | 179 | 1.6 | 1.6 | 0.00 | 0.13 | 0.13 | 69 | 1005.3 |
| 20260505214808 | 19 | 129 | 4.8 | 8.0 | 0.00 | 0.13 | 0.13 | 69 | 1005.0 |
| 20260505214305 | 19 | 175 | 4.8 | 4.8 | 0.00 | 0.13 | 0.13 | 70 | 1004.8 |
| 20260505213802 | 19 | 183 | 0.0 | 1.6 | 0.00 | 0.13 | 0.13 | 72 | 1004.3 |
| 20260505213300 | 19 | 175 | 0.0 | 0.0 | 0.00 | 0.13 | 0.13 | 72 | 1004.3 |
| 20260505212755 | 19 | 177 | 0.0 | 1.6 | 0.00 | 0.13 | 0.13 | 73 | 1004.2 |
| 20260505212253 | 19 | 182 | 0.0 | 1.6 | 0.00 | 0.13 | 0.13 | 74 | 1004.4 |
| 20260505211749 | 19 | 180 | 1.6 | 1.6 | 0.00 | 0.13 | 0.13 | 73 | 1004.1 |
| 20260505211247 | 18 | 177 | 1.6 | 1.6 | 0.00 | 0.13 | 0.13 | 73 | 1004.1 |
| 20260505210743 | 18 | 180 | 0.0 | 1.6 | 0.00 | 0.13 | 0.13 | 75 | 1004.2 |
| 20260505210240 | 18 | 179 | 1.6 | 1.6 | 0.00 | 0.13 | 0.13 | 77 | 1004.1 |
| 20260505205737 | 18 | 180 | 0.0 | 1.6 | 0.00 | 0.13 | 0.13 | 77 | 1004.2 |
| 20260505205236 | 18 | 209 | 1.6 | 1.6 | 0.00 | 0.13 | 0.13 | 78 | 1004.6 |
| 20260505204732 | 17 | 181 | 1.6 | 1.6 | 0.00 | 0.13 | 0.13 | 80 | 1004.1 |
| 20260505204230 | 17 | 170 | 0.0 | 1.6 | 0.00 | 0.13 | 0.13 | 82 | 1004.3 |
| 20260505203727 | 17 | 179 | 1.6 | 1.6 | 0.00 | 0.13 | 0.13 | 84 | 1004.1 |
| 20260505203224 | 17 | 179 | 1.6 | 1.6 | 0.00 | 0.13 | 0.13 | 86 | 1003.9 |
| 20260505202719 | 17 | 178 | 1.6 | 3.2 | 0.00 | 0.13 | 0.13 | 86 | 1003.8 |
| 20260505202216 | 17 | 180 | 1.6 | 1.6 | 0.00 | 0.13 | 0.13 | 86 | 1003.9 |
| 20260505201712 | 17 | 180 | 1.6 | 3.2 | 0.00 | 0.13 | 0.13 | 85 | 1003.8 |
| 20260505201210 | 16 | 162 | 3.2 | 3.2 | 0.00 | 0.13 | 0.13 | 85 | 1003.7 |
| 20260505200708 | 17 | 175 | 1.6 | 3.2 | 0.00 | 0.13 | 0.13 | 87 | 1003.7 |
| 20260505200205 | 16 | 174 | 1.6 | 1.6 | 0.61 | 0.13 | 0.13 | 86 | 1003.6 |
| 20260505195700 | 17 | 146 | 1.6 | 1.6 | 0.79 | 0.13 | 0.13 | 83 | 1003.5 |
| 20260505195158 | 20 | 160 | 6.4 | 9.7 | 0.18 | 0.03 | 0.03 | 73 | 1004.2 |
| 20260505194655 | 22 | 159 | 11.3 | 14.5 | 0.00 | 0.00 | 0.00 | 59 | 1004.1 |
| 20260505194151 | 23 | 156 | 8.0 | 9.7 | 0.00 | 0.00 | 0.00 | 47 | 1002.5 |
| 20260505193648 | 23 | 115 | 3.2 | 3.2 | 0.00 | 0.00 | 0.00 | 46 | 1001.7 |
| 20260505193145 | 23 | 161 | 4.8 | 8.0 | 0.00 | 0.00 | 0.00 | 47 | 1001.3 |
| 20260505192644 | 22 | 175 | 1.6 | 4.8 | 0.00 | 0.00 | 0.00 | 48 | 1001.5 |
| 20260505192141 | 23 | 161 | 9.7 | 11.3 | 0.00 | 0.00 | 0.00 | 48 | 1002.0 |
| 20260505191639 | 23 | 168 | 3.2 | 3.2 | 0.00 | 0.00 | 0.00 | 48 | 1001.4 |
| 20260505191137 | 24 | 171 | 11.3 | 16.1 | 0.00 | 0.00 | 0.00 | 45 | 1001.5 |
| 20260505190633 | 25 | 166 | 6.4 | 8.0 | 0.00 | 0.00 | 0.00 | 40 | 1001.1 |
| 20260505190127 | 26 | 190 | 4.8 | 9.7 | 0.00 | 0.00 | 0.00 | 39 | 1000.8 |
| 20260505185624 | 26 | 180 | 4.8 | 8.0 | 0.00 | 0.00 | 0.00 | 38 | 1001.1 |
| 20260505185120 | 25 | 180 | 9.7 | 14.5 | 0.00 | 0.00 | 0.00 | 38 | 1000.9 |
| 20260505184617 | 25 | 171 | 9.7 | 14.5 | 0.00 | 0.00 | 0.00 | 37 | 1001.1 |
| 20260505184114 | 25 | 199 | 11.3 | 12.9 | 0.00 | 0.00 | 0.00 | 38 | 1001.2 |
| 20260505183611 | 26 | 180 | 8.0 | 11.3 | 0.00 | 0.00 | 0.00 | 38 | 1001.1 |